Theta_e
323 326 326 325 327 328 330 331 333 335 335 332 329 328 329 334 335 334 332 331 328 326 322 320 319 317 315 313 312 312 312 313
324 325 329 326 327 328 329 330 333 334 332 327 325 326 330 333 333 334 332 330 328 325 321 319 319 316 315 315 312 311 310 313
321 324 326 328 328 330 330 331 333 334 331 328 326 327 329 331 332 331 330 327 325 322 321 318 318 315 314 313 312 310 311 311
323 322 325 326 326 328 330 332 333 333 331 328 328 330 330 329 328 328 328 324 324 320 318 319 317 315 313 314 313 311 308 308
323 324 324 326 327 328 331 332 332 333 332 328 326 325 324 327 328 328 322 322 319 317 318 318 316 315 314 313 312 311 308 304
323 324 325 327 328 329 329 330 332 333 333 332 329 327 328 330 328 326 323 319 317 316 317 317 316 315 315 313 311 308 304 305
324 325 326 327 331 331 331 329 329 332 333 333 331 330 329 326 325 322 317 317 313 315 315 316 316 315 313 311 309 306 304 302
324 324 326 326 328 330 330 330 328 331 331 331 331 331 330 326 324 321 318 315 314 315 315 315 314 314 312 307 307 302 302 300
323 325 326 327 327 329 329 329 328 329 328 330 330 328 326 325 323 321 316 313 317 317 315 314 313 311 308 302 306 304 300 299
319 323 326 327 328 327 329 329 329 330 328 329 327 326 322 322 323 320 314 315 316 315 314 313 311 307 302 302 301 299 299 301
316 318 322 325 327 328 330 329 328 329 329 327 327 326 326 324 322 318 314 317 317 313 312 309 301 302 302 301 299 298 299 301
316 317 318 321 324 326 327 327 327 327 328 328 326 324 324 323 321 317 315 315 314 310 307 302 301 299 299 298 297 297 298 300
319 319 320 321 322 324 325 326 326 327 328 327 323 322 321 314 312 310 310 307 305 301 302 299 299 297 297 296 297 300 300 299
319 321 321 323 324 325 325 327 326 327 324 320 313 310 308 306 305 304 303 301 300 301 301 298 297 297 298 299 301 300 300 299
318 320 322 324 325 325 324 320 319 316 314 310 307 306 305 304 304 303 301 302 300 299 299 298 299 299 299 301 300 300 300 299
314 319 322 323 323 323 323 317 311 311 308 307 306 306 305 303 302 301 301 299 299 299 299 298 299 299 298 298 300 300 299 298
313 316 319 318 317 317 316 315 311 310 307 305 304 303 303 303 300 299 300 299 297 296 296 296 296 297 295 292 293 298 298 297
312 314 315 314 314 314 313 312 311 308 305 304 304 304 301 299 297 295 296 296 297 296 298 299 299 301 293 292 290 296 296 296
308 310 310 311 312 311 310 310 309 307 305 304 303 300 297 297 297 297 298 299 299 301 300 298 298 296 291 290 289 295 295 296
Wind_Speed
14 16 18 19 18 16 14 12 11 11 7 7 7 7 8 7 6 6 9 9 11 10 9 10 9 8 7 6 6 4 3 1
17 16 17 20 18 16 15 14 12 10 8 9 8 9 8 7 6 8 9 9 12 12 9 11 9 8 7 8 7 7 4 2
16 17 18 18 18 18 17 16 14 12 10 9 7 9 9 8 6 7 10 10 12 11 10 11 11 8 10 9 8 5 3 3
19 19 19 18 18 19 17 16 14 14 12 9 7 8 5 7 6 7 9 11 13 12 12 10 11 10 9 9 8 7 5 4
18 20 21 19 18 17 18 16 15 14 14 12 13 10 10 9 8 8 9 12 12 13 13 12 12 9 9 9 8 6 4 4
20 22 22 20 18 17 16 17 16 15 15 14 12 13 9 6 7 11 10 10 12 13 13 13 12 9 9 9 8 7 3 4
20 19 18 19 18 17 17 18 18 17 16 17 16 15 12 8 10 9 7 8 9 13 13 12 12 10 11 10 10 10 5 6
19 19 19 19 20 19 17 19 19 17 17 16 16 15 14 14 13 11 12 9 10 12 14 13 11 11 11 8 8 6 5 6
19 20 19 19 19 20 19 20 20 19 17 17 16 15 10 10 12 10 7 8 10 13 14 12 12 12 11 7 7 5 4 5
16 18 18 18 18 21 22 20 18 18 17 15 14 13 11 10 11 10 8 8 7 10 14 13 12 11 8 6 3 6 4 8
8 11 14 14 16 16 16 16 17 16 15 13 13 13 13 11 10 12 9 8 11 12 13 11 9 7 6 6 3 4 6 7
6 7 9 11 12 12 14 14 15 14 13 13 11 11 11 9 8 9 6 6 10 10 7 7 7 8 4 2 3 5 11 9
2 5 7 8 10 10 11 11 12 11 10 10 8 8 6 7 6 7 7 7 9 11 11 8 5 5 2 4 8 12 10 9
6 7 6 7 8 8 8 7 7 5 4 7 8 8 8 8 9 9 11 12 12 9 9 9 7 6 8 11 13 10 11 10
6 7 8 7 7 8 7 7 8 8 8 10 10 10 10 10 10 10 8 9 10 11 8 6 5 7 10 12 10 10 12 11
7 7 7 8 9 8 9 10 10 11 12 10 11 11 11 12 10 12 10 10 9 9 7 4 6 8 6 9 11 11 12 13
3 6 8 9 9 10 10 12 11 11 12 13 13 13 13 13 12 11 10 8 7 6 5 5 6 7 9 7 10 13 14 14
7 9 9 10 10 11 12 12 12 13 14 14 14 14 14 13 12 9 8 6 5 4 6 7 10 8 3 6 8 11 14 15
9 9 11 11 12 13 14 14 14 14 14 14 14 14 14 12 8 6 6 5 4 6 4 5 6 7 0 6 9 11 13 16
Wind_Direction
176 182 164 172 179 190 192 195 193 186 173 170 180 185 190 180 187 191 174 180 181 182 174 168 175 166 163 159 148 148 140 68
176 187 185 187 189 202 203 202 201 191 185 184 185 193 194 193 185 201 182 186 186 192 171 173 178 176 163 161 155 167 135 82
187 188 192 196 196 200 202 206 198 198 192 190 191 202 199 197 192 196 193 184 190 186 179 181 184 162 165 168 176 158 129 88
191 195 199 201 207 203 208 207 202 201 198 195 192 196 206 197 195 199 201 192 189 186 189 184 179 176 177 178 175 182 177 157
199 199 203 203 209 210 211 207 205 202 198 197 200 199 207 202 196 197 192 196 193 189 190 184 184 185 179 180 181 177 154 223
205 201 203 203 201 204 206 209 207 203 201 210 205 219 223 207 202 198 197 192 197 193 191 187 186 188 183 178 164 162 157 197
210 207 204 205 202 202 200 205 205 206 205 208 213 215 212 196 206 193 182 194 202 200 194 193 191 189 181 172 170 167 175 208
216 208 201 205 200 200 200 202 207 204 203 210 213 216 216 213 204 197 187 192 202 200 202 197 189 185 177 166 165 165 198 194
213 217 211 206 202 201 199 202 206 198 200 207 206 207 211 211 207 207 189 190 204 201 199 195 188 173 160 146 171 199 185 219
215 212 211 209 205 205 204 206 205 201 204 204 203 209 205 207 213 210 183 192 212 196 192 188 179 151 141 153 150 196 212 228
208 215 211 212 208 210 209 212 208 206 203 203 210 209 217 220 215 211 188 201 201 197 187 169 128 136 148 177 174 197 218 233
185 196 199 200 205 206 205 213 211 207 200 203 207 213 214 218 207 211 186 167 190 181 145 117 115 128 143 160 234 214 233 243
187 174 175 181 189 195 199 205 208 210 202 203 191 203 169 135 147 143 141 113 101 115 123 120 101 79 100 191 245 238 234 243
176 162 172 169 171 179 187 188 189 184 145 117 108 112 112 115 114 107 107 126 135 122 129 124 128 159 210 233 242 246 248 251
211 177 163 153 150 140 145 139 117 112 119 119 118 119 121 125 125 126 128 127 116 114 133 157 176 206 230 243 253 257 254 258
206 192 164 147 136 123 116 118 118 124 122 125 123 121 119 113 108 105 106 109 123 139 154 180 222 238 258 270 262 263 262 266
157 150 127 119 123 115 116 118 120 120 114 110 113 116 119 115 106 105 113 116 129 131 157 199 225 261 252 246 268 277 272 270
106 114 116 117 113 117 112 114 118 114 115 118 120 120 114 114 114 116 128 131 147 192 234 233 241 263 214 250 253 273 273 272
107 107 108 108 109 107 113 112 110 112 111 115 117 116 116 120 121 132 150 178 239 247 262 277 278 278 155 273 276 280 277 274